,,PA_Meas_PMT16A,,PR_Meas_QMR101_102,,RH_Meas_QMH101,,SR_Meas_QMS101,,TA_Meas_QMH101,,GenWind,,GenWind,
time,status,PA,status,PR,status,RH,status,SR,status,TA,status,DirAvg,status,SpdAvg,
2013-05-18, 00:00:04,VALID,918.884,VALID,0,VALID,92.7389,VALID,0,VALID,20.6179,VALID,16,VALID,0,
2013-05-18, 00:01:04,VALID,918.9,VALID,0,VALID,92.9599,VALID,0,VALID,20.6179,VALID,16,VALID,0,
2013-05-18, 00:02:04,VALID,918.841,VALID,0,VALID,93.2191,VALID,0,VALID,20.5984,VALID,356,VALID,0,
2013-05-18, 00:03:04,VALID,918.822,VALID,0,VALID,93.4631,VALID,0,VALID,20.639,VALID,354,VALID,0,
2013-05-18, 00:04:04,VALID,918.826,VALID,0,VALID,93.6994,VALID,0,VALID,20.6569,VALID,11,VALID,0,
2013-05-18, 00:05:04,VALID,918.799,VALID,0,VALID,93.7299,VALID,0,VALID,20.6975,VALID,347,VALID,0,
2013-05-18, 00:06:04,VALID,918.764,VALID,0,VALID,93.89,VALID,0.107441,VALID,20.7544,VALID,31,VALID,0,
2013-05-18, 00:07:04,VALID,918.72,VALID,0,VALID,93.7223,VALID,0,VALID,20.7544,VALID,16,VALID,0,
2013-05-18, 00:08:04,VALID,918.702,VALID,0,VALID,93.768,VALID,0,VALID,20.7349,VALID,338,VALID,0,
2013-05-18, 00:09:04,VALID,918.656,VALID,0,VALID,93.5927,VALID,0,VALID,20.7349,VALID,18,VALID,0,
2013-05-18, 00:10:04,VALID,918.661,VALID,0,VALID,93.6537,VALID,0,VALID,20.7154,VALID,11,VALID,0,
2013-05-18, 00:11:04,VALID,918.649,VALID,0,VALID,93.7909,VALID,0,VALID,20.7349,VALID,2,VALID,0,
2013-05-18, 00:12:04,VALID,918.592,VALID,0,VALID,93.9052,VALID,0,VALID,20.756,VALID,360,VALID,0,
2013-05-18, 00:13:04,VALID,918.608,VALID,0,VALID,93.9967,VALID,0,VALID,20.756,VALID,6,VALID,0,
2013-05-18, 00:14:04,VALID,918.601,VALID,0,VALID,93.8138,VALID,0,VALID,20.756,VALID,332,VALID,0,
2013-05-18, 00:15:04,VALID,918.581,VALID,0,VALID,93.6537,VALID,0,VALID,20.7365,VALID,353,VALID,0,
2013-05-18, 00:16:04,VALID,918.568,VALID,0,VALID,93.6765,VALID,0,VALID,20.7381,VALID,341,VALID,0,
2013-05-18, 00:17:04,VALID,918.544,VALID,0,VALID,93.707,VALID,0,VALID,20.6975,VALID,360,VALID,0,
2013-05-18, 00:18:04,VALID,918.548,VALID,0,VALID,93.7375,VALID,0,VALID,20.7381,VALID,10,VALID,0,
2013-05-18, 00:19:04,VALID,918.497,VALID,0,VALID,93.5469,VALID,0,VALID,20.678,VALID,10,VALID,0,
2013-05-18, 00:20:04,VALID,918.509,VALID,0,VALID,93.5241,VALID,0,VALID,20.639,VALID,9,VALID,0,
2013-05-18, 00:21:04,VALID,918.486,VALID,0,VALID,93.89,VALID,0,VALID,20.6585,VALID,359,VALID,0,
2013-05-18, 00:22:04,VALID,918.498,VALID,0,VALID,93.9891,VALID,0,VALID,20.6585,VALID,359,VALID,0,
2013-05-18, 00:23:04,VALID,918.498,VALID,0,VALID,93.9434,VALID,0,VALID,20.678,VALID,359,VALID,0,
2013-05-18, 00:24:04,VALID,918.498,VALID,0,VALID,93.951,VALID,0,VALID,20.6585,VALID,359,VALID,0,
2013-05-18, 00:25:04,VALID,918.466,VALID,0,VALID,93.9738,VALID,0,VALID,20.6585,VALID,359,VALID,0,
2013-05-18, 00:26:04,VALID,918.46,VALID,0,VALID,93.9129,VALID,0,VALID,20.6585,VALID,359,VALID,0,
2013-05-18, 00:27:04,VALID,918.435,VALID,0,VALID,93.8366,VALID,0,VALID,20.6194,VALID,359,VALID,0,
2013-05-18, 00:28:04,VALID,918.382,VALID,0,VALID,94.0958,VALID,0,VALID,20.6585,VALID,346,VALID,0,
2013-05-18, 00:29:04,VALID,918.388,VALID,0,VALID,93.9738,VALID,0,VALID,20.639,VALID,346,VALID,0,
2013-05-18, 00:30:04,VALID,918.361,VALID,0,VALID,93.6308,VALID,0,VALID,20.6194,VALID,346,VALID,0,
2013-05-18, 00:31:04,VALID,918.343,VALID,0,VALID,93.829,VALID,0,VALID,20.5999,VALID,342,VALID,0,
2013-05-18, 00:32:04,VALID,918.296,VALID,0,VALID,93.7299,VALID,0,VALID,20.5999,VALID,342,VALID,0,
2013-05-18, 00:33:04,VALID,918.288,VALID,0,VALID,93.8595,VALID,0,VALID,20.5804,VALID,3,VALID,0,
2013-05-18, 00:34:04,VALID,918.275,VALID,0,VALID,93.8138,VALID,0,VALID,20.5609,VALID,2,VALID,0,
2013-05-18, 00:35:04,VALID,918.281,VALID,0,VALID,93.9586,VALID,0,VALID,20.5625,VALID,358,VALID,0,
2013-05-18, 00:36:04,VALID,918.255,VALID,0,VALID,93.7909,VALID,0,VALID,20.5219,VALID,358,VALID,0,
2013-05-18, 00:37:04,VALID,918.243,VALID,0,VALID,93.7528,VALID,0,VALID,20.5024,VALID,353,VALID,0,
2013-05-18, 00:38:04,VALID,918.232,VALID,0,VALID,93.8138,VALID,0,VALID,20.504,VALID,6,VALID,0,
2013-05-18, 00:39:04,VALID,918.218,VALID,0,VALID,94.0196,VALID,0,VALID,20.5219,VALID,6,VALID,0,
2013-05-18, 00:40:04,VALID,918.214,VALID,0,VALID,93.7451,VALID,0,VALID,20.4634,VALID,6,VALID,0,
2013-05-18, 00:41:04,VALID,918.21,VALID,0,VALID,93.6613,VALID,0,VALID,20.4244,VALID,6,VALID,0,
2013-05-18, 00:42:04,VALID,918.201,VALID,0,VALID,93.7451,VALID,0,VALID,20.3854,VALID,6,VALID,0,
2013-05-18, 00:43:04,VALID,918.173,VALID,0,VALID,93.8671,VALID,0,VALID,20.3464,VALID,6,VALID,0,
2013-05-18, 00:44:04,VALID,918.178,VALID,0,VALID,94.1797,VALID,0,VALID,20.3448,VALID,6,VALID,0,
2013-05-18, 00:45:04,VALID,918.166,VALID,0,VALID,94.4541,VALID,0,VALID,20.3448,VALID,6,VALID,0,
2013-05-18, 00:46:04,VALID,918.15,VALID,0,VALID,94.4694,VALID,0,VALID,20.3643,VALID,6,VALID,0,
2013-05-18, 00:47:04,VALID,918.128,VALID,0,VALID,94.5151,VALID,0,VALID,20.3464,VALID,6,VALID,0,
2013-05-18, 00:48:05,VALID,918.068,VALID,0,VALID,94.6066,VALID,0,VALID,20.3253,VALID,6,VALID,0,
2013-05-18, 00:49:05,VALID,918.079,VALID,0,VALID,94.7057,VALID,0,VALID,20.3058,VALID,6,VALID,0,
2013-05-18, 00:50:05,VALID,918.034,VALID,0,VALID,94.7743,VALID,0,VALID,20.3253,VALID,17,VALID,0,
2013-05-18, 00:51:05,VALID,918.026,VALID,0,VALID,94.6371,VALID,0,VALID,20.2879,VALID,25,VALID,0,
2013-05-18, 00:52:05,VALID,917.991,VALID,0,VALID,94.8963,VALID,0,VALID,20.2668,VALID,25,VALID,0,
2013-05-18, 00:53:05,VALID,917.984,VALID,0,VALID,94.9268,VALID,0.107441,VALID,20.3074,VALID,25,VALID,0,
2013-05-18, 00:54:05,VALID,917.984,VALID,0,VALID,94.881,VALID,0,VALID,20.2668,VALID,25,VALID,0,
2013-05-18, 00:55:05,VALID,917.938,VALID,0,VALID,94.7057,VALID,0,VALID,20.2278,VALID,20,VALID,0,
2013-05-18, 00:56:04,VALID,917.942,VALID,0,VALID,95.1631,VALID,0,VALID,20.3058,VALID,8,VALID,0,
2013-05-18, 00:57:05,VALID,917.914,VALID,0,VALID,95.1402,VALID,0,VALID,20.3464,VALID,8,VALID,0,
2013-05-18, 00:58:05,VALID,917.874,VALID,0,VALID,95.2317,VALID,0,VALID,20.4049,VALID,13,VALID,0,
2013-05-18, 00:59:05,VALID,917.855,VALID,0,VALID,95.003,VALID,0,VALID,20.4049,VALID,12,VALID,0,
2013-05-18, 01:00:05,VALID,917.837,VALID,0,VALID,94.7819,VALID,0,VALID,20.3838,VALID,11,VALID,0,
2013-05-18, 01:01:05,VALID,917.831,VALID,0,VALID,94.7819,VALID,0,VALID,20.4049,VALID,11,VALID,0,
2013-05-18, 01:02:05,VALID,917.779,VALID,0,VALID,94.7743,VALID,0,VALID,20.4244,VALID,11,VALID,0,
2013-05-18, 01:03:05,VALID,917.739,VALID,0,VALID,94.7286,VALID,0,VALID,20.4228,VALID,10,VALID,0,
2013-05-18, 01:04:05,VALID,917.721,VALID,0,VALID,94.7362,VALID,0,VALID,20.4228,VALID,10,VALID,0,
2013-05-18, 01:05:05,VALID,917.714,VALID,0,VALID,94.5456,VALID,0,VALID,20.4033,VALID,10,VALID,0,
2013-05-18, 01:06:05,VALID,917.699,VALID,0,VALID,94.4617,VALID,0,VALID,20.4033,VALID,10,VALID,0,
2013-05-18, 01:07:05,VALID,917.705,VALID,0,VALID,94.2712,VALID,0,VALID,20.3659,VALID,10,VALID,0,
2013-05-18, 01:08:05,VALID,917.686,VALID,0,VALID,94.4236,VALID,0,VALID,20.3269,VALID,10,VALID,0,
2013-05-18, 01:09:05,VALID,917.689,VALID,0,VALID,94.3931,VALID,0,VALID,20.2879,VALID,10,VALID,0,
2013-05-18, 01:10:05,VALID,917.686,VALID,0,VALID,94.3703,VALID,0,VALID,20.2684,VALID,10,VALID,0,
2013-05-18, 01:11:05,VALID,917.657,VALID,0,VALID,94.355,VALID,0,VALID,20.2083,VALID,10,VALID,0,
2013-05-18, 01:12:05,VALID,917.656,VALID,0,VALID,94.3474,VALID,0,VALID,20.1693,VALID,12,VALID,0,
2013-05-18, 01:13:05,VALID,917.652,VALID,0,VALID,94.4236,VALID,0,VALID,20.1708,VALID,29,VALID,0,
2013-05-18, 01:14:05,VALID,917.655,VALID,0,VALID,94.5075,VALID,0,VALID,20.1708,VALID,25,VALID,0,
2013-05-18, 01:15:05,VALID,917.662,VALID,0,VALID,94.6676,VALID,0,VALID,20.2098,VALID,25,VALID,0,
2013-05-18, 01:16:05,VALID,917.664,VALID,0,VALID,94.8658,VALID,0,VALID,20.2293,VALID,11,VALID,0,
2013-05-18, 01:17:05,VALID,917.634,VALID,0,VALID,95.1021,VALID,0,VALID,20.2473,VALID,11,VALID,0,
2013-05-18, 01:18:05,VALID,917.639,VALID,0,VALID,94.8124,VALID,0,VALID,20.2489,VALID,11,VALID,0,
2013-05-18, 01:19:05,VALID,917.641,VALID,0,VALID,95.0716,VALID,0,VALID,20.2473,VALID,1,VALID,0,
2013-05-18, 01:20:05,VALID,917.629,VALID,0,VALID,94.8658,VALID,0,VALID,20.2293,VALID,1,VALID,0,
2013-05-18, 01:21:05,VALID,917.612,VALID,0,VALID,94.9573,VALID,0,VALID,20.2278,VALID,1,VALID,0,
2013-05-18, 01:22:05,VALID,917.595,VALID,0,VALID,95.003,VALID,0,VALID,20.2098,VALID,1,VALID,0,
2013-05-18, 01:23:05,VALID,917.609,VALID,0,VALID,94.9725,VALID,0,VALID,20.2098,VALID,1,VALID,0,
2013-05-18, 01:24:05,VALID,917.571,VALID,0,VALID,95.125,VALID,0,VALID,20.1903,VALID,1,VALID,0,
2013-05-18, 01:25:05,VALID,917.577,VALID,0,VALID,95.2088,VALID,0,VALID,20.2098,VALID,1,VALID,0,
2013-05-18, 01:26:05,VALID,917.557,VALID,0,VALID,95.1326,VALID,0,VALID,20.1708,VALID,1,VALID,0,
2013-05-18, 01:27:05,VALID,917.533,VALID,0,VALID,95.2393,VALID,0,VALID,20.1708,VALID,1,VALID,0,
2013-05-18, 01:28:05,VALID,917.528,VALID,0,VALID,95.2698,VALID,0,VALID,20.1513,VALID,1,VALID,0,
2013-05-18, 01:29:05,VALID,917.506,VALID,0,VALID,95.247,VALID,0,VALID,20.1708,VALID,1,VALID,0,
2013-05-18, 01:30:05,VALID,917.536,VALID,0,VALID,95.3461,VALID,0,VALID,20.1303,VALID,1,VALID,0,
2013-05-18, 01:31:05,VALID,917.509,VALID,0,VALID,95.529,VALID,0,VALID,20.1708,VALID,1,VALID,0,
2013-05-18, 01:32:05,VALID,917.504,VALID,0,VALID,95.4909,VALID,0,VALID,20.1708,VALID,1,VALID,0,
2013-05-18, 01:33:05,VALID,917.486,VALID,0,VALID,95.5824,VALID,0,VALID,20.1693,VALID,1,VALID,0,
2013-05-18, 01:34:05,VALID,917.506,VALID,0,VALID,95.5824,VALID,0,VALID,20.1693,VALID,1,VALID,0,
2013-05-18, 01:35:05,VALID,917.525,VALID,0,VALID,95.3842,VALID,0.107441,VALID,20.1498,VALID,1,VALID,0,
2013-05-18, 01:36:05,VALID,917.502,VALID,0,VALID,95.3994,VALID,0,VALID,20.1513,VALID,1,VALID,0,
2013-05-18, 01:37:05,VALID,917.48,VALID,0,VALID,95.4604,VALID,0,VALID,20.1513,VALID,1,VALID,0,
2013-05-18, 01:38:05,VALID,917.479,VALID,0,VALID,95.3994,VALID,0,VALID,20.1303,VALID,1,VALID,0,
2013-05-18, 01:39:05,VALID,917.505,VALID,0,VALID,95.3003,VALID,0,VALID,20.1303,VALID,7,VALID,0,
2013-05-18, 01:40:05,VALID,917.482,VALID,0,VALID,95.3003,VALID,0,VALID,20.1108,VALID,6,VALID,0,
2013-05-18, 01:41:05,VALID,917.496,VALID,0,VALID,95.4528,VALID,0,VALID,20.1303,VALID,6,VALID,0,
2013-05-18, 01:42:05,VALID,917.494,VALID,0,VALID,95.4375,VALID,0,VALID,20.1334,VALID,1,VALID,0,
2013-05-18, 01:43:05,VALID,917.511,VALID,0,VALID,95.5367,VALID,0,VALID,20.1529,VALID,1,VALID,0,
2013-05-18, 01:44:05,VALID,917.512,VALID,0,VALID,95.4147,VALID,0,VALID,20.1123,VALID,1,VALID,0,
2013-05-18, 01:45:05,VALID,917.486,VALID,0,VALID,95.5138,VALID,0,VALID,20.1334,VALID,1,VALID,0,
2013-05-18, 01:46:05,VALID,917.524,VALID,0,VALID,95.4985,VALID,0,VALID,20.1334,VALID,1,VALID,0,
2013-05-18, 01:47:05,VALID,917.493,VALID,0,VALID,95.4985,VALID,0,VALID,20.1334,VALID,1,VALID,0,
2013-05-18, 01:48:05,VALID,917.494,VALID,0,VALID,95.5367,VALID,0,VALID,20.0944,VALID,1,VALID,0,
2013-05-18, 01:49:05,VALID,917.482,VALID,0,VALID,95.5748,VALID,0,VALID,20.0928,VALID,1,VALID,0,
2013-05-18, 01:50:05,VALID,917.487,VALID,0,VALID,95.712,VALID,0,VALID,20.1334,VALID,1,VALID,0,
2013-05-18, 01:51:05,VALID,917.471,VALID,0,VALID,95.7501,VALID,0,VALID,20.1529,VALID,2,VALID,0,
2013-05-18, 01:52:05,VALID,917.446,VALID,0,VALID,95.7577,VALID,0,VALID,20.1724,VALID,2,VALID,0,
2013-05-18, 01:53:05,VALID,917.467,VALID,0,VALID,95.7349,VALID,0,VALID,20.1708,VALID,2,VALID,0,
2013-05-18, 01:54:05,VALID,917.47,VALID,0,VALID,95.6967,VALID,0,VALID,20.1919,VALID,2,VALID,0,
2013-05-18, 01:55:05,VALID,917.432,VALID,0,VALID,95.2775,VALID,0,VALID,20.1318,VALID,2,VALID,0,
2013-05-18, 01:56:05,VALID,917.452,VALID,0,VALID,95.5367,VALID,0,VALID,20.1334,VALID,2,VALID,0,
2013-05-18, 01:57:05,VALID,917.429,VALID,0,VALID,95.4452,VALID,0,VALID,20.1708,VALID,2,VALID,0,
2013-05-18, 01:58:05,VALID,917.428,VALID,0,VALID,95.2775,VALID,0.107441,VALID,20.0928,VALID,2,VALID,0,
2013-05-18, 01:59:05,VALID,917.42,VALID,0,VALID,95.468,VALID,0,VALID,20.1123,VALID,14,VALID,0,
2013-05-18, 02:00:05,VALID,917.401,VALID,0,VALID,95.712,VALID,0,VALID,20.1513,VALID,13,VALID,0,
2013-05-18, 02:01:05,VALID,917.398,VALID,0,VALID,95.4375,VALID,0,VALID,20.1108,VALID,9,VALID,0,
2013-05-18, 02:02:05,VALID,917.396,VALID,0,VALID,95.6739,VALID,0,VALID,20.1318,VALID,9,VALID,0,
2013-05-18, 02:03:05,VALID,917.385,VALID,0,VALID,95.2775,VALID,0.107441,VALID,20.1123,VALID,9,VALID,0,
2013-05-18, 02:04:05,VALID,917.374,VALID,0,VALID,95.4375,VALID,0,VALID,20.0928,VALID,9,VALID,0,
2013-05-18, 02:05:05,VALID,917.37,VALID,0,VALID,95.6053,VALID,0,VALID,20.1513,VALID,8,VALID,0,
2013-05-18, 02:06:05,VALID,917.367,VALID,0,VALID,95.5519,VALID,0,VALID,20.1708,VALID,8,VALID,0,
2013-05-18, 02:07:05,VALID,917.34,VALID,0,VALID,95.4757,VALID,0,VALID,20.1693,VALID,2,VALID,0,
2013-05-18, 02:08:05,VALID,917.322,VALID,0,VALID,95.2012,VALID,0,VALID,20.1513,VALID,2,VALID,0,
2013-05-18, 02:09:05,VALID,917.323,VALID,0,VALID,95.186,VALID,0.107441,VALID,20.1513,VALID,360,VALID,0,
2013-05-18, 02:10:05,VALID,917.283,VALID,0,VALID,95.0488,VALID,0,VALID,20.1123,VALID,360,VALID,0,
2013-05-18, 02:11:05,VALID,917.25,VALID,0,VALID,95.3308,VALID,0,VALID,20.0928,VALID,360,VALID,0,
2013-05-18, 02:12:05,VALID,917.252,VALID,0,VALID,95.6739,VALID,0,VALID,20.1513,VALID,358,VALID,0,
2013-05-18, 02:13:05,VALID,917.259,VALID,0,VALID,95.5138,VALID,0,VALID,20.1303,VALID,3,VALID,0,
2013-05-18, 02:14:05,VALID,917.242,VALID,0,VALID,95.4071,VALID,0,VALID,20.1318,VALID,358,VALID,0,
2013-05-18, 02:15:05,VALID,917.252,VALID,0,VALID,95.5214,VALID,0,VALID,20.1708,VALID,355,VALID,0,
2013-05-18, 02:16:05,VALID,917.237,VALID,0,VALID,95.4071,VALID,0,VALID,20.1318,VALID,355,VALID,0,
2013-05-18, 02:17:05,VALID,917.221,VALID,0,VALID,95.4833,VALID,0,VALID,20.1708,VALID,355,VALID,0,
2013-05-18, 02:18:05,VALID,917.22,VALID,0,VALID,95.4299,VALID,0,VALID,20.1513,VALID,354,VALID,0,
2013-05-18, 02:19:05,VALID,917.22,VALID,0,VALID,94.9192,VALID,0,VALID,20.0523,VALID,327,VALID,0,
2013-05-18, 02:20:05,VALID,917.198,VALID,0,VALID,95.0564,VALID,0,VALID,20.0538,VALID,327,VALID,0,
2013-05-18, 02:21:05,VALID,917.217,VALID,0,VALID,94.9496,VALID,0,VALID,20.0148,VALID,327,VALID,0,
2013-05-18, 02:22:05,VALID,917.208,VALID,0,VALID,95.4375,VALID,0,VALID,20.0733,VALID,327,VALID,0,
2013-05-18, 02:23:05,VALID,917.195,VALID,0,VALID,95.4452,VALID,0,VALID,20.0913,VALID,327,VALID,0,
2013-05-18, 02:24:05,VALID,917.197,VALID,0,VALID,95.3994,VALID,0,VALID,20.1123,VALID,327,VALID,0,
2013-05-18, 02:25:05,VALID,917.203,VALID,0,VALID,95.3689,VALID,0.107441,VALID,20.0733,VALID,327,VALID,0,
2013-05-18, 02:26:05,VALID,917.218,VALID,0,VALID,95.2165,VALID,0,VALID,20.0343,VALID,327,VALID,0,
2013-05-18, 02:27:05,VALID,917.211,VALID,0,VALID,95.4985,VALID,0,VALID,20.0343,VALID,335,VALID,0,
2013-05-18, 02:28:05,VALID,917.213,VALID,0,VALID,95.3689,VALID,0,VALID,20.0343,VALID,339,VALID,0,
2013-05-18, 02:29:05,VALID,917.215,VALID,0,VALID,95.3994,VALID,0,VALID,19.9743,VALID,339,VALID,0,
2013-05-18, 02:30:05,VALID,917.192,VALID,0,VALID,95.6662,VALID,0,VALID,20.0343,VALID,339,VALID,0,
2013-05-18, 02:31:05,VALID,917.201,VALID,0,VALID,95.4071,VALID,0,VALID,19.9953,VALID,339,VALID,0,
2013-05-18, 02:32:05,VALID,917.195,VALID,0,VALID,95.4147,VALID,0,VALID,19.9368,VALID,339,VALID,0,
2013-05-18, 02:33:05,VALID,917.201,VALID,0,VALID,95.3842,VALID,0,VALID,19.8768,VALID,339,VALID,0,
2013-05-18, 02:34:05,VALID,917.212,VALID,0,VALID,95.3994,VALID,0,VALID,19.8978,VALID,339,VALID,0,
2013-05-18, 02:35:05,VALID,917.194,VALID,0,VALID,95.1631,VALID,0.107441,VALID,19.8393,VALID,339,VALID,0,
2013-05-18, 02:36:05,VALID,917.2,VALID,0,VALID,94.5837,VALID,0,VALID,19.7223,VALID,339,VALID,0,
2013-05-18, 02:37:05,VALID,917.211,VALID,0,VALID,94.5227,VALID,0,VALID,19.6833,VALID,339,VALID,0,
2013-05-18, 02:38:05,VALID,917.218,VALID,0,VALID,95.0183,VALID,0,VALID,19.6833,VALID,339,VALID,0,
2013-05-18, 02:39:05,VALID,917.211,VALID,0,VALID,95.1097,VALID,0,VALID,19.6833,VALID,339,VALID,0,
2013-05-18, 02:40:05,VALID,917.251,VALID,0,VALID,95.3689,VALID,0.107441,VALID,19.7028,VALID,339,VALID,0,
2013-05-18, 02:41:05,VALID,917.255,VALID,0,VALID,95.468,VALID,0,VALID,19.7028,VALID,339,VALID,0,
2013-05-18, 02:42:05,VALID,917.252,VALID,0,VALID,95.7882,VALID,0,VALID,19.7418,VALID,339,VALID,0,
2013-05-18, 02:43:05,VALID,917.226,VALID,0,VALID,95.895,VALID,0.107441,VALID,19.7793,VALID,358,VALID,0,
2013-05-18, 02:44:05,VALID,917.274,VALID,0,VALID,96.0245,VALID,0,VALID,19.8183,VALID,358,VALID,0,
2013-05-18, 02:45:05,VALID,917.263,VALID,0,VALID,95.9941,VALID,0,VALID,19.8198,VALID,358,VALID,0,
2013-05-18, 02:46:05,VALID,917.251,VALID,0,VALID,96.1008,VALID,0,VALID,19.8783,VALID,358,VALID,0,
2013-05-18, 02:47:05,VALID,917.262,VALID,0,VALID,96.1236,VALID,0.107441,VALID,19.8978,VALID,358,VALID,0,
2013-05-18, 02:48:05,VALID,917.261,VALID,0,VALID,96.1389,VALID,0,VALID,19.8978,VALID,358,VALID,0,
2013-05-18, 02:49:05,VALID,917.251,VALID,0,VALID,96.1923,VALID,0,VALID,19.9563,VALID,358,VALID,0,
2013-05-18, 02:50:05,VALID,917.254,VALID,0,VALID,96.1846,VALID,0,VALID,19.8963,VALID,358,VALID,0,
2013-05-18, 02:51:05,VALID,917.225,VALID,0,VALID,96.1465,VALID,0,VALID,19.8978,VALID,358,VALID,0,
2013-05-18, 02:52:05,VALID,917.237,VALID,0,VALID,96.1313,VALID,0,VALID,19.8978,VALID,358,VALID,0,
2013-05-18, 02:53:05,VALID,917.222,VALID,0,VALID,96.1389,VALID,0.107441,VALID,19.9173,VALID,358,VALID,0,
2013-05-18, 02:54:05,VALID,917.203,VALID,0,VALID,96.1618,VALID,0.107441,VALID,19.9173,VALID,349,VALID,0,
2013-05-18, 02:55:05,VALID,917.202,VALID,0,VALID,96.1541,VALID,0,VALID,19.9173,VALID,349,VALID,0,
2013-05-18, 02:56:05,VALID,917.213,VALID,0,VALID,96.2151,VALID,0,VALID,19.9368,VALID,349,VALID,0,
2013-05-18, 02:57:05,VALID,917.19,VALID,0,VALID,96.1846,VALID,0,VALID,19.9368,VALID,349,VALID,0,
2013-05-18, 02:58:05,VALID,917.226,VALID,0,VALID,96.1694,VALID,0,VALID,19.8963,VALID,349,VALID,0,
2013-05-18, 02:59:05,VALID,917.224,VALID,0,VALID,96.1846,VALID,0,VALID,19.9368,VALID,349,VALID,0,
2013-05-18, 03:00:05,VALID,917.207,VALID,0,VALID,96.177,VALID,0,VALID,19.9173,VALID,349,VALID,0,
2013-05-18, 03:01:05,VALID,917.216,VALID,0,VALID,96.1999,VALID,0,VALID,19.9353,VALID,349,VALID,0,
2013-05-18, 03:02:05,VALID,917.22,VALID,0,VALID,96.1999,VALID,0,VALID,19.9368,VALID,349,VALID,0,
2013-05-18, 03:03:05,VALID,917.181,VALID,0,VALID,96.2228,VALID,0,VALID,19.9743,VALID,349,VALID,0,
2013-05-18, 03:04:05,VALID,917.183,VALID,0,VALID,96.2609,VALID,0,VALID,20.0133,VALID,349,VALID,0,
2013-05-18, 03:05:05,VALID,917.193,VALID,0,VALID,96.2533,VALID,0,VALID,20.0328,VALID,349,VALID,0,
2013-05-18, 03:06:05,VALID,917.177,VALID,0,VALID,96.0779,VALID,0,VALID,19.9368,VALID,349,VALID,0,
2013-05-18, 03:07:05,VALID,917.153,VALID,0,VALID,95.9483,VALID,0,VALID,19.8588,VALID,349,VALID,0,
2013-05-18, 03:08:05,VALID,917.115,VALID,0,VALID,95.9178,VALID,0,VALID,19.8588,VALID,349,VALID,0,
2013-05-18, 03:09:05,VALID,917.136,VALID,0,VALID,95.8263,VALID,0.107441,VALID,19.8198,VALID,349,VALID,0,
2013-05-18, 03:10:05,VALID,917.118,VALID,0,VALID,95.4757,VALID,0,VALID,19.7223,VALID,349,VALID,0,
2013-05-18, 03:11:05,VALID,917.133,VALID,0,VALID,95.8416,VALID,0,VALID,19.8198,VALID,349,VALID,0,
2013-05-18, 03:12:05,VALID,917.113,VALID,0,VALID,95.9254,VALID,0,VALID,19.8393,VALID,349,VALID,0,
2013-05-18, 03:13:05,VALID,917.1,VALID,0,VALID,96.0322,VALID,0.107441,VALID,19.8978,VALID,349,VALID,0,
2013-05-18, 03:14:05,VALID,917.121,VALID,0,VALID,95.9331,VALID,0,VALID,19.8003,VALID,349,VALID,0,
2013-05-18, 03:15:05,VALID,917.13,VALID,0,VALID,95.9483,VALID,0,VALID,19.8588,VALID,349,VALID,0,
2013-05-18, 03:16:05,VALID,917.15,VALID,0,VALID,95.9941,VALID,0,VALID,19.8588,VALID,349,VALID,0,
2013-05-18, 03:17:05,VALID,917.12,VALID,0,VALID,96.0093,VALID,0,VALID,19.8378,VALID,349,VALID,0,
2013-05-18, 03:18:05,VALID,917.137,VALID,0,VALID,96.0855,VALID,0,VALID,19.9173,VALID,350,VALID,0,
2013-05-18, 03:19:05,VALID,917.111,VALID,0,VALID,95.9864,VALID,0.107441,VALID,19.8393,VALID,33,VALID,0,
2013-05-18, 03:20:05,VALID,917.111,VALID,0,VALID,94.4465,VALID,0.107441,VALID,19.5663,VALID,37,VALID,0,
2013-05-18, 03:21:05,VALID,917.125,VALID,0,VALID,95.773,VALID,0,VALID,19.5663,VALID,50,VALID,0,
2013-05-18, 03:22:05,VALID,917.127,VALID,0,VALID,96.0017,VALID,0.107441,VALID,19.7223,VALID,69,VALID,0,
2013-05-18, 03:23:05,VALID,917.185,VALID,0,VALID,95.8568,VALID,0,VALID,19.7223,VALID,39,VALID,0,
2013-05-18, 03:24:05,VALID,917.205,VALID,0,VALID,95.003,VALID,0.107441,VALID,19.5648,VALID,39,VALID,0,
2013-05-18, 03:25:05,VALID,917.213,VALID,0,VALID,94.7133,VALID,0,VALID,19.4478,VALID,133,VALID,0,
2013-05-18, 03:26:05,VALID,917.246,VALID,0,VALID,94.2864,VALID,0,VALID,19.2738,VALID,135,VALID,0,
2013-05-18, 03:27:05,VALID,917.233,VALID,0,VALID,94.3093,VALID,0,VALID,19.1958,VALID,135,VALID,0,
2013-05-18, 03:28:05,VALID,917.243,VALID,0,VALID,94.7057,VALID,0,VALID,19.1958,VALID,135,VALID,0,
2013-05-18, 03:29:04,VALID,917.216,VALID,0,VALID,95.4528,VALID,0.107441,VALID,19.3713,VALID,135,VALID,0,
2013-05-18, 03:30:04,VALID,917.214,VALID,0,VALID,95.773,VALID,0,VALID,19.4493,VALID,135,VALID,0,
2013-05-18, 03:31:04,VALID,917.16,VALID,0,VALID,95.9483,VALID,0,VALID,19.5468,VALID,135,VALID,0,
2013-05-18, 03:32:04,VALID,917.155,VALID,0,VALID,96.0169,VALID,0,VALID,19.5468,VALID,135,VALID,0,
2013-05-18, 03:33:04,VALID,917.089,VALID,0,VALID,96.0398,VALID,0,VALID,19.5468,VALID,135,VALID,0,
2013-05-18, 03:34:04,VALID,917.134,VALID,0,VALID,96.0627,VALID,0,VALID,19.5078,VALID,135,VALID,0,
2013-05-18, 03:35:04,VALID,917.109,VALID,0,VALID,95.6205,VALID,0,VALID,19.3518,VALID,135,VALID,0,
2013-05-18, 03:36:04,VALID,917.103,VALID,0,VALID,95.8721,VALID,0.107441,VALID,19.3503,VALID,135,VALID,0,
2013-05-18, 03:37:04,VALID,917.117,VALID,0,VALID,95.9407,VALID,0,VALID,19.3908,VALID,135,VALID,0,
2013-05-18, 03:38:04,VALID,917.056,VALID,0,VALID,95.8568,VALID,0,VALID,19.3533,VALID,135,VALID,0,
2013-05-18, 03:39:04,VALID,917.07,VALID,0,VALID,95.6967,VALID,0,VALID,19.2738,VALID,135,VALID,0,
2013-05-18, 03:40:04,VALID,917.081,VALID,0,VALID,95.9178,VALID,0,VALID,19.2738,VALID,135,VALID,0,
2013-05-18, 03:41:04,VALID,917.082,VALID,0,VALID,96.1923,VALID,0,VALID,19.4688,VALID,128,VALID,0,
2013-05-18, 03:42:04,VALID,917.072,VALID,0,VALID,96.2914,VALID,0,VALID,19.5483,VALID,128,VALID,0,
2013-05-18, 03:43:04,VALID,917.101,VALID,0,VALID,96.3142,VALID,0,VALID,19.5678,VALID,128,VALID,0,
2013-05-18, 03:44:04,VALID,917.091,VALID,0,VALID,96.2914,VALID,0,VALID,19.5483,VALID,128,VALID,0,
2013-05-18, 03:45:04,VALID,917.111,VALID,0,VALID,96.238,VALID,0,VALID,19.6068,VALID,128,VALID,0,
2013-05-18, 03:46:04,VALID,917.062,VALID,0,VALID,96.3219,VALID,0,VALID,19.7433,VALID,128,VALID,0,
2013-05-18, 03:47:04,VALID,917.085,VALID,0,VALID,96.2685,VALID,0,VALID,19.7823,VALID,128,VALID,0,
2013-05-18, 03:48:04,VALID,917.094,VALID,0,VALID,96.1694,VALID,0,VALID,19.7628,VALID,128,VALID,0,
2013-05-18, 03:49:04,VALID,917.116,VALID,0,VALID,95.8721,VALID,0,VALID,19.6458,VALID,127,VALID,0,
2013-05-18, 03:50:04,VALID,917.094,VALID,0,VALID,95.7044,VALID,0,VALID,19.6653,VALID,128,VALID,0,
2013-05-18, 03:51:04,VALID,917.127,VALID,0,VALID,95.7501,VALID,0,VALID,19.7043,VALID,128,VALID,0,
2013-05-18, 03:52:04,VALID,917.13,VALID,0,VALID,95.5367,VALID,0,VALID,19.6848,VALID,128,VALID,0,
2013-05-18, 03:53:04,VALID,917.138,VALID,0,VALID,95.0335,VALID,0,VALID,19.5483,VALID,131,VALID,0,
2013-05-18, 03:54:04,VALID,917.157,VALID,0,VALID,94.8429,VALID,0,VALID,19.4898,VALID,131,VALID,0,
2013-05-18, 03:55:04,VALID,917.14,VALID,0,VALID,95.2241,VALID,0,VALID,19.5483,VALID,131,VALID,0,
2013-05-18, 03:56:04,VALID,917.138,VALID,0,VALID,95.0716,VALID,0,VALID,19.5288,VALID,131,VALID,0,
2013-05-18, 03:57:04,VALID,917.181,VALID,0,VALID,95.0183,VALID,0,VALID,19.5078,VALID,131,VALID,0,
2013-05-18, 03:58:04,VALID,917.158,VALID,0,VALID,94.7819,VALID,0,VALID,19.4298,VALID,131,VALID,0,
2013-05-18, 03:59:04,VALID,917.176,VALID,0,VALID,94.6371,VALID,0,VALID,19.3518,VALID,131,VALID,0,
2013-05-18, 04:00:04,VALID,917.155,VALID,0,VALID,95.1936,VALID,0,VALID,19.4298,VALID,131,VALID,0,